Location: Oshawa
(43.9000°N, 78.8670°W)
Time: 08:38:10
(UTC-04:00)

S-56A Canister/Altair - All Passes

Search period start: 25 May 2017 00:00
Search period end: 04 June 2017 00:00
Orbit: 638 x 2496 km, 38.9° (Epoch: 24 May)

Date Brightness Start Highest point End Pass type
(mag) Time Alt. Az. Time Alt. Az. Time Alt. Az.
25 May - 13:17:28 10° SSW 13:21:18 19° SSE 13:24:38 10° ESE daylight
25 May - 15:19:58 10° WSW 15:24:25 41° S 15:28:40 10° E daylight
25 May - 17:23:24 10° W 17:27:36 40° S 17:32:22 10° ESE daylight
25 May - 19:27:20 10° WSW 19:30:51 19° SSW 19:35:01 10° SSE daylight
26 May - 12:45:09 10° SSW 12:49:00 18° SSE 12:52:19 10° ESE daylight
26 May - 14:47:35 10° WSW 14:52:12 40° S 14:56:22 10° E daylight
26 May - 16:51:09 10° W 16:55:22 42° S 16:59:56 10° ESE daylight
26 May - 18:55:03 10° WSW 18:58:32 20° SSW 19:02:38 10° SSE daylight
27 May - 12:12:48 10° SSW 12:16:42 17° SSE 12:19:59 10° ESE daylight
27 May - 14:15:06 10° SW 14:19:58 38° SSE 14:24:08 10° E daylight
27 May - 16:18:49 10° WSW 16:23:09 43° S 16:27:33 10° ESE daylight
27 May - 18:22:45 10° WSW 18:26:16 22° SSW 18:30:17 10° SSE daylight
28 May - 11:40:25 10° S 11:44:21 16° SSE 11:47:39 10° ESE daylight
28 May - 13:42:34 10° SW 13:47:43 37° SSE 13:51:55 10° E daylight
28 May - 15:46:26 10° WSW 15:50:56 45° S 15:55:15 10° ESE daylight
28 May - 17:50:26 10° WSW 17:54:01 24° SSW 17:58:00 10° SSE daylight
29 May - 11:08:01 10° S 11:11:57 15° SSE 11:15:16 10° ESE daylight
29 May - 13:09:57 10° SW 13:15:27 35° SSE 13:19:45 10° E daylight
29 May - 15:13:58 10° WSW 15:18:43 46° S 15:22:59 10° ESE daylight
29 May - 17:18:04 10° WSW 17:21:47 26° SSW 17:25:44 10° SE daylight
30 May - 10:35:38 10° S 10:39:32 15° SSE 10:42:51 10° ESE daylight
30 May - 12:37:15 10° SW 12:43:08 34° SSE 12:47:37 10° E daylight
30 May - 14:41:25 10° WSW 14:46:29 48° S 14:50:47 10° ESE daylight
30 May - 16:45:40 10° W 16:49:34 28° SSW 16:53:31 10° SE daylight
31 May - 10:03:16 10° S 10:07:05 14° SSE 10:10:21 10° ESE daylight
31 May - 12:04:31 10° SW 12:10:47 33° SSE 12:15:28 10° E daylight
31 May - 14:08:47 10° WSW 14:14:14 49° S 14:18:37 10° ESE daylight
31 May - 16:13:13 10° W 16:17:22 31° SSW 16:21:21 10° SE daylight
01 Jun - 09:30:58 10° S 09:34:36 13° SSE 09:37:45 10° ESE daylight
01 Jun - 11:31:43 10° SW 11:38:25 32° SSE 11:43:19 10° E daylight
01 Jun - 13:36:04 10° WSW 13:41:57 49° S 13:46:29 10° ESE daylight
01 Jun - 15:40:41 10° W 15:45:09 35° SSW 15:49:13 10° SE daylight
01 Jun - 17:46:56 10° SW 17:47:57 11° SSW 17:48:59 10° SSW daylight
02 Jun - 08:58:47 10° SSE 09:02:04 12° SSE 09:04:58 10° SE daylight
02 Jun - 10:58:51 10° SW 11:06:00 31° SSE 11:11:09 10° E daylight
02 Jun - 13:03:14 10° WSW 13:09:39 50° S 13:14:23 10° E daylight
02 Jun - 15:08:05 10° W 15:12:56 38° SSW 15:17:06 10° SE daylight
02 Jun - 17:13:45 10° WSW 17:15:43 13° SSW 17:17:42 10° S daylight
03 Jun - 08:26:50 10° SSE 08:29:29 11° SE 08:31:56 10° SE daylight
03 Jun - 10:25:58 10° SW 10:33:31 30° SSE 10:38:58 10° E daylight
03 Jun - 12:30:20 10° WSW 12:37:19 50° S 12:42:17 10° E daylight
03 Jun - 14:35:24 10° W 14:40:42 42° SSW 14:45:01 10° ESE daylight
03 Jun - 16:40:51 10° WSW 16:43:30 15° SSW 16:46:05 10° S daylight
